Location: Bennemühlen
(52.5740°N, 9.7135°E)
Time: 08:24:20
(UTC+00:00)

ISS - Pass Details

Date: 25 January 2026
Orbit: 413 x 429 km, 51.6° (Epoch: 11 February)

Event Time Altitude Azimuth Distance (km) Brightness Sun altitude
Rises 17:43:06 0° 280° (W) 2,366 1.4 -16.3°
Reaches altitude 10° 17:45:16 10° 274° (W) 1,503 0.3 -16.6°
Maximum altitude 17:48:28 42° 202° (SSW) 611 -2.7 -17.1°
Enters shadow 17:50:00 25° 146° (SE) 896 -2.4 -17.3°
